Location: Hobi?a Gr?di?te
(45.4833°N, 22.7833°E)
Time: 04:49:26
(UTC+00:00)

Cosmos 1553 Rocket - Pass Details

Date: 28 January 2023
Orbit: 942 x 1007 km, 82.9° (Epoch: 29 March)

Event Time Altitude Azimuth Distance (km) Brightness Sun altitude
Rises 17:08:15 0° 159° (SSE) 3,593 6.8 -17.4°
Reaches altitude 10° 17:10:54 10° 151° (SSE) 2,653 6.1 -17.8°
Maximum altitude 17:16:18 35° 87° (E) 1,480 4.4 -18.8°
Drops below altitude 10° 17:21:46 10° 24° (NNE) 2,688 6.0 -19.7°
Sets 17:24:28 0° 16° (NNE) 3,646 6.8 -20.2°
